Location: Praha
(50.0830°N, 14.4670°E)
Time: 17:59:01
(UTC+02:00)

ISS - Pass Details

Date: 06 September 2024
Orbit: 414 x 424 km, 51.6° (Epoch: 16 September)

Event Time Altitude Azimuth Distance (km) Brightness Sun altitude
Exits shadow 03:51:49 29° 115° (ESE) 818 -2.1 -22.6°
Drops below altitude 10° 03:53:37 10° 112° (ESE) 1,518 -0.6 -22.3°
Sets 03:55:43 0° 111° (ESE) 2,383 0.4 -22.1°
